Date,TemperatureHighF,TemperatureAvgF,TemperatureLowF,DewpointHighF,DewpointAvgF,DewpointLowF,HumidityHigh,HumidityAvg,HumidityLow,PressureMaxIn,PressureMinIn,WindSpeedMaxMPH,WindSpeedAvgMPH,GustSpeedMaxMPH,PrecipitationSumIn
2013-1-1,36.5,31.7,19.2,24.2,15.6,3.6,64,52,39,29.97,29.75,13,6,24,0.02
2013-1-2,29.5,20.6,11.7,15.1,5.9,-2.6,64,53,45,30.14,29.93,14,5,23,0.00
2013-1-3,19.4,9.3,5.6,-2.2,-6.1,-7.9,58,49,32,30.18,30.13,8,3,15,0.00
2013-1-12,44.1,42.8,41.1,42.8,41.8,40.3,99,96,94,30.23,30.16,2,0,5,0.01
2013-1-13,53.1,47.2,42.2,49.9,45.9,41.9,99,96,86,30.19,30.02,7,2,14,0.02
2013-1-14,61.5,52.6,42.3,51.9,42.0,24.8,95,70,37,30.28,29.87,11,6,20,0.00
2013-1-15,42.2,38.7,34.9,25.3,23.5,21.3,62,54,48,30.35,30.25,5,2,13,0.00
2013-1-16,34.9,32.7,30.0,32.4,29.0,20.2,97,87,56,30.29,29.87,4,1,7,0.13
2013-1-17,41.8,35.2,29.5,32.5,26.3,11.2,96,72,47,30.13,29.87,9,4,18,0.20
2013-1-18,29.5,22.8,17.7,11.2,-2.5,-10.1,46,33,23,30.50,30.10,11,5,20,0.20
2013-1-19,49.1,38.1,22.7,30.7,20.1,2.5,67,49,32,30.43,29.93,13,6,27,0.00
2013-1-20,53.6,42.0,29.1,31.4,23.1,5.0,67,48,28,29.95,29.58,16,8,26,0.00
2013-1-21,28.8,24.9,21.9,20.3,8.2,0.8,87,51,31,30.14,29.84,11,3,21,0.00
2013-1-22,23.9,20.4,13.3,19.1,5.9,-5.8,89,56,30,30.12,29.80,11,5,21,0.00
2013-1-23,15.9,11.4,7.0,-2.1,-10.6,-15.6,55,37,24,30.19,30.10,12,6,19,0.00
2013-1-24,20.0,11.1,3.0,-9.3,-13.1,-17.4,50,33,19,30.26,30.10,15,7,29,0.00
2013-1-25,23.5,16.2,8.4,12.4,-9.5,-16.4,81,33,19,30.35,30.11,10,4,21,0.00
2013-1-26,24.8,17.6,11.7,12.4,0.3,-11.0,82,50,22,30.27,30.05,12,5,20,0.00
2013-1-27,31.2,21.1,12.8,1.2,-2.7,-9.2,59,37,21,30.51,30.27,13,5,20,0.00
2013-1-28,30.7,25.2,20.0,27.5,10.5,-2.2,94,58,27,30.50,30.06,6,1,12,0.00
2013-1-29,34.4,30.7,25.8,33.1,27.7,23.3,95,89,81,30.24,30.06,2,0,7,0.13
2013-1-30,62.4,50.2,34.3,57.5,47.9,33.0,99,92,79,30.19,29.50,13,5,24,0.05
2013-1-31,61.0,48.4,31.5,58.4,35.5,10.8,93,64,31,29.62,28.99,18,10,46,0.39
2013-2-1,32.7,28.8,22.7,14.0,5.1,0.5,49,36,27,30.12,29.62,12,8,22,0.39
2013-2-2,29.4,24.5,18.0,9.9,3.7,-1.7,50,41,31,30.30,30.09,8,4,12,0.00
2013-2-3,26.6,24.6,22.2,21.8,18.5,9.3,85,78,48,30.10,29.77,6,2,12,0.00
2013-2-4,29.3,24.7,21.3,20.8,8.9,1.1,86,53,31,29.98,29.75,13,6,25,0.00
2013-2-5,28.7,25.0,21.3,23.3,11.2,5.5,89,57,42,30.07,29.98,6,2,11,0.00
2013-2-6,38.2,30.5,25.6,24.4,17.6,0.7,91,63,32,30.33,29.96,11,3,16,0.04
2013-2-7,29.7,24.8,18.3,16.7,0.0,-5.3,62,34,24,30.57,30.33,10,3,23,0.04
2013-2-8,33.1,29.5,17.7,31.2,25.0,15.8,100,84,63,30.53,29.65,16,6,24,0.04
2013-2-9,20.2,18.0,14.9,18.3,12.9,1.4,93,81,54,30.23,29.60,14,10,24,0.04
2013-2-10,40.2,23.9,10.7,19.0,5.5,-1.7,76,48,20,30.44,30.23,8,2,18,0.04
2013-2-11,45.1,32.5,20.3,44.3,28.1,11.1,99,84,56,30.40,29.64,3,0,7,0.23
2013-2-12,44.8,39.3,33.8,38.5,27.6,24.0,99,64,47,29.92,29.64,14,6,20,0.23
2013-2-13,42.5,35.5,27.9,27.4,23.3,20.8,78,62,44,29.90,29.72,7,2,12,0.00
2013-2-14,45.2,36.9,31.2,27.9,21.3,16.3,78,55,33,30.03,29.72,8,2,13,0.00
2013-2-15,52.6,39.8,31.0,34.5,30.2,22.0,94,70,44,30.04,29.93,9,3,16,0.00
2013-2-16,38.9,34.8,30.6,32.2,26.0,14.5,95,72,47,29.99,29.76,6,2,11,0.02
2013-2-17,30.4,21.9,17.2,17.3,8.6,-2.9,87,59,34,29.76,29.42,17,10,38,0.02
2013-2-18,31.9,23.0,14.6,0.6,-2.8,-8.4,48,33,18,30.19,29.71,20,9,31,0.00
2013-2-19,47.6,37.1,23.8,43.4,22.4,-0.4,98,58,33,30.21,29.61,6,2,14,0.33
2013-2-20,42.9,32.9,26.6,42.1,18.3,6.9,97,57,34,29.82,29.56,13,8,29,0.33
2013-2-21,32.7,27.7,24.7,13.7,10.5,6.8,60,49,37,30.21,29.81,16,8,30,0.00
2013-2-22,39.1,32.1,25.0,23.8,19.0,13.7,71,59,39,30.43,30.21,10,3,19,0.00
2013-2-23,39.3,35.1,30.3,33.1,27.9,22.5,96,76,64,30.38,29.96,4,1,9,0.10
2013-2-24,37.5,34.0,30.7,37.0,33.1,29.7,98,97,93,29.96,29.73,7,2,16,0.35
2013-2-25,41.2,35.1,30.0,32.3,29.1,24.7,96,80,58,30.29,29.93,5,1,10,0.13
2013-2-26,44.8,36.8,29.1,34.8,28.8,23.2,97,75,47,30.38,30.20,5,2,10,0.13
2013-2-27,41.8,39.9,38.2,40.5,38.1,30.7,98,93,73,30.20,29.59,10,6,19,1.29
2013-2-28,47.4,39.0,34.0,37.1,34.6,32.3,97,85,62,29.68,29.56,6,1,8,1.29
2013-3-1,41.2,38.3,34.7,35.1,29.1,24.7,89,70,57,29.71,29.56,9,3,13,0.00
2013-3-2,42.6,37.8,32.5,28.1,25.5,23.0,72,61,52,29.71,29.66,9,3,15,0.00
2013-3-3,41.9,35.8,32.5,31.7,27.3,23.1,90,71,61,29.68,29.60,7,4,13,0.00
2013-3-4,40.2,34.5,30.3,28.3,22.4,18.7,82,62,46,29.77,29.61,14,9,25,0.00
2013-3-5,45.4,37.4,31.5,32.6,26.1,20.5,84,64,47,30.11,29.77,10,4,16,0.00
2013-3-6,40.1,37.4,34.6,35.9,32.3,27.5,92,82,62,30.15,30.08,14,7,24,0.15
2013-3-7,36.6,32.2,30.3,31.5,29.1,-99.9,96,90,69,30.11,30.03,12,7,24,0.05
2013-3-8,42.8,33.4,29.1,33.4,27.4,20.3,100,82,43,30.18,29.98,14,4,25,0.22
2013-3-9,44.5,36.5,30.0,30.2,24.6,18.3,92,63,47,30.39,30.18,10,2,13,0.12
2013-3-10,41.9,35.1,27.9,31.3,29.1,26.1,93,80,62,30.46,30.36,4,1,10,0.01
2013-3-11,52.9,42.7,35.6,40.5,35.1,31.5,91,76,53,30.37,30.19,7,4,12,0.01
2013-3-12,56.6,50.3,41.8,53.7,47.4,39.6,96,90,77,30.21,29.76,10,3,19,0.27
2013-3-13,52.9,45.1,38.0,52.1,29.2,17.0,97,57,27,29.82,29.73,10,5,19,0.27
2013-3-14,38.2,32.1,23.2,22.8,12.7,3.3,60,45,32,29.87,29.74,14,7,23,0.00
2013-3-15,40.8,30.2,20.0,25.6,9.3,0.4,66,43,21,29.91,29.67,12,7,23,0.00
2013-3-16,40.2,34.4,28.8,24.6,11.7,3.8,65,41,24,29.92,29.70,9,4,15,0.00
2013-3-17,37.5,31.4,25.6,17.5,7.2,-0.4,62,37,21,30.36,29.92,13,4,23,0.00
2013-3-18,37.8,28.6,19.1,27.1,7.1,-5.1,92,42,21,30.50,30.30,8,2,14,0.00
2013-3-19,35.6,32.4,28.2,34.8,31.4,25.1,98,96,88,30.30,29.64,11,6,22,0.63
2013-3-20,38.5,31.4,25.6,25.1,19.6,14.5,88,64,38,29.86,29.73,12,6,24,0.11
2013-3-21,37.5,31.4,25.7,29.5,21.1,13.4,91,67,44,29.86,29.65,5,1,10,0.01
2013-3-22,39.8,33.7,28.2,27.3,17.8,12.1,88,53,34,29.78,29.64,8,5,15,0.01
2013-3-23,43.5,35.7,28.7,21.6,17.2,12.3,68,48,29,29.82,29.67,14,7,28,0.00
2013-3-24,47.4,38.9,31.6,29.4,21.7,17.7,70,51,34,29.86,29.77,11,4,18,0.00
2013-3-25,45.5,38.1,32.8,32.8,28.7,24.4,78,69,53,29.81,29.56,10,4,22,0.00
2013-3-26,51.3,41.8,34.9,30.1,22.0,14.9,82,48,25,29.81,29.57,9,5,16,0.00
2013-3-27,53.2,43.7,31.8,31.2,21.6,18.3,67,43,27,29.90,29.77,10,5,19,0.00
2013-3-28,48.0,42.4,37.2,34.8,31.9,26.6,89,68,45,30.05,29.90,7,3,13,0.01
2013-3-29,56.9,46.6,35.9,35.7,30.3,25.0,78,55,31,30.08,30.00,10,3,19,0.01
2013-3-30,56.9,47.5,38.2,31.7,21.9,9.4,71,41,16,30.13,30.04,10,4,16,0.00
2013-3-31,59.6,46.1,30.4,40.2,25.5,17.2,81,49,20,30.16,29.79,11,3,25,0.01
2013-4-1,61.6,47.2,35.8,46.2,35.4,7.7,97,67,28,29.82,29.53,14,6,26,0.09
2013-4-2,39.6,34.7,30.1,14.6,9.9,5.1,47,36,25,29.99,29.82,15,8,27,0.09
2013-4-3,45.7,37.0,30.3,17.3,9.9,3.8,55,34,19,30.19,29.96,14,9,24,0.00
2013-4-4,56.5,42.1,30.0,24.6,13.4,5.4,53,34,13,30.34,30.09,10,5,20,0.00
2013-4-5,61.5,46.5,38.3,28.6,24.3,17.3,65,45,19,30.10,29.65,12,6,24,0.00
2013-4-6,46.8,38.5,32.4,24.2,8.2,-2.6,52,31,14,30.38,29.91,14,6,29,0.00
2013-4-7,53.3,42.5,29.4,39.8,25.8,13.2,76,53,27,30.37,30.05,13,5,30,0.00
2013-4-8,66.6,52.9,44.3,43.0,38.6,30.0,92,62,28,30.13,29.98,8,3,14,0.00
2013-4-9,70.8,55.6,46.8,50.9,43.1,37.5,95,66,34,30.13,29.89,12,4,24,0.10
2013-4-10,61.5,51.3,46.4,48.8,44.1,41.1,95,77,55,30.05,29.90,6,2,10,0.12
2013-4-11,51.6,47.1,43.8,47.4,39.9,25.6,97,78,48,30.18,29.86,6,2,10,0.01
2013-4-12,43.6,39.5,37.3,37.8,34.5,27.6,96,83,53,30.21,29.83,9,5,20,0.37
2013-4-13,52.5,42.7,35.8,39.4,35.8,31.8,94,78,48,29.96,29.80,8,3,20,0.40
2013-4-14,52.2,46.6,40.6,40.4,30.4,22.5,86,56,33,30.25,29.95,12,4,19,0.00
2013-4-15,55.0,45.8,35.6,38.5,31.3,26.6,75,58,38,30.44,30.25,5,2,10,0.00
2013-4-16,63.4,52.3,39.1,50.0,40.5,34.4,92,66,44,30.45,30.10,12,6,28,0.00
2013-4-17,67.6,59.2,51.1,52.1,35.0,24.5,82,44,21,30.37,30.10,10,5,23,0.00
2013-4-18,63.5,52.6,41.3,43.0,32.8,23.0,74,49,27,30.47,30.19,10,4,19,0.00
2013-4-19,74.2,63.7,52.9,62.9,57.1,43.0,97,81,56,30.19,29.69,14,7,28,0.00
2013-4-20,66.9,54.5,45.1,62.6,39.4,20.3,94,61,31,30.25,29.63,13,7,28,0.24
2013-4-21,53.2,43.4,35.3,30.2,20.4,14.4,61,41,23,30.72,30.25,13,4,23,0.24
2013-4-22,49.8,42.4,34.1,33.9,28.9,16.8,83,61,28,30.80,30.64,9,4,21,0.00
2013-4-23,42.3,41.4,39.5,41.6,37.7,29.9,99,87,65,30.64,30.16,9,5,18,0.04
2013-4-24,76.0,55.3,41.9,49.9,43.9,35.8,96,70,24,30.16,29.82,11,5,21,0.04
2013-4-25,64.8,56.0,46.7,52.8,34.7,19.5,92,51,18,30.30,29.87,13,5,21,0.01
2013-4-26,57.2,49.8,43.6,41.3,33.6,27.5,85,55,37,30.47,30.30,6,2,12,0.01
2013-4-27,63.1,52.2,38.3,43.0,35.0,27.7,96,58,29,30.46,30.33,6,2,11,0.00
2013-4-28,67.1,55.2,40.2,39.2,33.8,24.5,89,49,26,30.38,30.26,8,2,12,0.00
2013-4-29,70.1,57.7,46.8,44.7,35.4,15.7,86,49,18,30.32,30.22,8,3,15,0.00
2013-4-30,68.3,56.1,44.2,39.1,28.1,6.9,75,40,11,30.41,30.29,5,1,9,0.00
2013-5-1,66.8,55.2,39.3,40.0,32.9,23.9,86,48,21,30.51,30.41,4,1,9,0.00
2013-5-2,75.6,55.8,43.9,45.4,39.7,31.6,89,60,22,30.53,30.40,8,2,14,0.00
2013-5-3,58.9,50.3,43.5,42.6,39.9,38.0,86,69,51,30.56,30.42,8,3,14,0.00
2013-5-4,56.6,48.7,39.9,43.5,39.2,35.9,94,71,51,30.42,30.36,5,2,11,0.00
2013-5-5,58.1,48.6,38.5,42.3,38.4,35.6,94,70,45,30.37,30.30,5,1,13,0.00
2013-5-6,64.7,50.7,39.3,48.5,44.0,38.0,98,80,48,30.33,30.20,5,1,8,0.00
2013-5-7,74.6,62.4,45.2,57.2,50.5,43.9,96,68,41,30.22,30.13,5,1,11,0.00
2013-5-8,72.3,61.7,54.2,62.1,57.1,52.7,96,85,64,30.24,30.09,5,1,9,0.14
2013-5-9,69.1,59.3,56.7,60.5,23.5,-99.9,98,74,67,30.09,29.93,2,0,6,0.67
2013-5-10,78.6,65.7,55.4,58.6,11.2,-99.9,97,46,40,29.99,29.93,5,1,11,0.68
2013-5-11,72.0,64.6,59.0,61.8,58.2,52.9,93,81,63,29.95,29.73,9,4,20,0.06
2013-5-12,72.5,62.1,51.9,60.2,48.6,-99.9,96,68,31,29.85,29.59,12,3,21,0.06
2013-5-13,59.5,51.0,44.2,32.0,27.4,22.8,61,41,27,30.07,29.85,8,4,22,0.06
2013-5-14,58.9,50.6,41.2,33.1,28.2,22.9,66,44,27,30.09,30.01,9,4,18,0.00
2013-5-15,65.5,53.8,39.3,52.2,37.9,25.8,89,59,26,30.10,29.71,11,3,20,0.00
2013-5-16,81.6,67.5,48.5,51.8,39.8,28.7,96,46,18,29.83,29.65,12,3,19,0.01
2013-5-17,68.8,60.1,51.9,45.2,39.7,32.7,73,49,27,30.25,29.83,9,3,19,0.01
2013-5-18,72.1,61.1,46.5,47.6,42.6,32.5,91,55,24,30.34,30.25,5,1,10,0.00
2013-5-19,71.3,57.4,49.2,55.1,49.7,45.7,96,77,44,30.39,30.27,3,1,8,0.08
2013-5-20,83.2,67.4,55.9,64.9,6.8,-99.9,96,46,49,30.27,29.94,7,2,13,0.04
2013-5-21,78.8,61.4,51.4,62.7,2.0,-99.9,96,53,55,30.06,29.91,8,2,13,0.05
2013-5-22,67.6,56.5,50.7,58.7,7.3,-99.9,96,59,69,30.09,29.93,7,2,16,0.01
2013-5-23,76.3,64.7,54.8,67.5,-19.8,-99.9,95,38,68,29.97,29.85,11,3,22,0.10
2013-5-24,72.7,63.1,49.6,66.2,-18.6,-99.9,96,45,69,29.86,29.69,6,2,15,0.45
2013-5-25,52.2,48.0,41.9,50.2,-24.0,-99.9,95,48,84,29.85,29.73,10,5,20,0.05
2013-5-26,58.3,48.8,39.8,40.6,37.7,34.8,93,68,44,30.13,29.75,12,6,26,0.01
2013-5-27,72.8,58.0,40.9,45.0,37.0,28.5,92,52,21,30.21,30.10,9,3,16,0.01
2013-5-28,73.2,60.4,43.6,52.5,44.5,34.8,95,60,28,30.27,30.19,5,1,8,0.00
2013-5-29,71.6,63.2,58.9,63.5,27.2,-99.9,97,69,72,30.23,30.03,4,1,9,0.99
2013-5-30,89.3,76.1,62.6,68.4,11.5,-99.9,92,40,44,30.11,30.03,7,2,13,0.01
2013-5-31,95.4,82.4,67.6,68.0,63.9,57.5,89,58,30,30.11,29.95,5,2,14,0.01
2013-6-1,92.7,81.3,68.6,66.8,63.4,58.6,81,57,33,30.01,29.88,9,3,18,0.00
2013-6-2,89.9,78.6,69.6,67.5,64.8,59.7,86,65,38,29.91,29.75,14,6,37,0.00
2013-6-3,77.7,70.0,63.5,66.9,62.7,42.8,95,79,47,29.88,29.78,5,2,12,0.32
2013-6-4,72.8,63.0,52.2,47.1,42.4,39.5,65,48,32,30.13,29.86,7,3,15,0.32
2013-6-5,75.6,64.5,52.2,49.3,44.5,39.0,77,50,30,30.23,30.13,5,1,10,0.00
2013-6-6,74.7,65.6,56.2,54.4,47.8,37.6,78,54,32,30.23,30.14,5,1,13,0.00
2013-6-7,61.2,56.4,54.1,57.0,21.3,-99.9,97,71,72,30.16,29.85,6,2,12,2.10
2013-6-8,80.3,64.0,53.6,62.5,-11.5,-99.9,90,37,52,30.03,29.65,7,3,18,0.04
2013-6-9,80.5,69.6,56.9,58.7,54.8,49.6,96,63,36,30.19,30.03,7,2,15,0.04
2013-6-10,70.8,63.5,57.6,58.8,51.0,-99.9,96,75,54,30.25,30.06,4,1,7,0.63
2013-6-11,63.9,58.7,56.2,58.1,-45.7,-99.9,96,30,80,30.07,29.60,5,2,11,0.63
2013-6-12,71.5,62.8,56.6,57.3,-3.0,-99.9,89,41,51,29.85,29.59,11,4,26,0.02
2013-6-13,69.3,58.9,52.8,57.2,53.1,48.8,96,82,51,29.85,29.71,5,1,10,0.60
2013-6-14,75.6,61.2,51.7,57.5,3.2,-99.9,96,46,44,29.79,29.68,7,2,13,0.38
2013-6-15,80.1,69.0,56.5,54.1,45.7,37.1,90,48,22,29.97,29.79,7,3,14,0.38
2013-6-16,76.3,67.8,55.9,62.6,52.8,46.2,82,60,37,29.97,29.75,7,2,19,0.00
2013-6-17,86.5,70.7,59.0,65.0,55.2,-99.9,96,69,30,29.94,29.81,12,2,19,0.41
2013-6-18,76.3,63.8,58.7,63.0,10.6,-99.9,96,58,56,29.99,29.92,5,1,12,0.44
2013-6-19,73.9,65.0,56.2,58.1,29.2,-99.9,96,52,35,30.18,29.95,4,1,10,0.47
2013-6-20,80.5,66.0,52.2,53.1,48.6,40.5,94,59,28,30.30,30.18,4,1,10,0.00
2013-6-21,85.9,79.9,70.6,63.5,57.8,49.8,68,48,30,30.28,30.22,4,2,11,0.00
2013-6-22,84.9,73.9,63.5,61.9,57.7,54.8,76,58,38,30.25,30.14,8,2,14,0.00
2013-6-23,90.5,77.7,66.1,70.0,63.3,54.9,76,62,47,30.19,30.02,8,4,19,0.00
2013-6-24,94.3,81.3,71.3,71.7,69.0,65.3,94,69,41,30.05,29.89,9,2,15,0.11
2013-6-25,92.9,80.6,69.6,69.3,66.8,62.8,94,66,38,29.95,29.75,6,2,12,0.11
2013-6-26,85.5,76.4,69.3,70.8,68.3,66.0,94,77,55,29.88,29.75,4,1,8,0.12
2013-6-27,72.8,66.0,62.1,67.5,-22.6,-99.9,95,41,76,29.91,29.80,4,1,7,0.03
2013-6-28,83.0,71.3,61.3,71.8,-17.1,-99.9,91,38,61,29.80,29.52,10,3,25,0.03
2013-6-29,83.4,75.9,71.5,70.4,68.1,61.5,94,78,54,29.75,29.54,9,4,19,0.03
2013-6-30,86.1,76.9,70.6,71.4,69.1,67.3,95,78,59,29.97,29.75,7,3,16,0.00
2013-7-1,82.8,75.7,71.8,75.9,29.2,-99.9,95,64,71,30.11,29.97,6,2,12,0.09
2013-7-2,84.0,74.4,63.1,72.8,68.8,60.5,92,83,61,30.25,30.11,5,2,11,0.09
2013-7-3,90.5,76.3,62.4,72.4,67.6,60.6,94,76,50,30.23,30.15,7,3,18,0.00
2013-7-4,93.6,83.6,73.5,73.9,71.9,69.7,93,70,46,30.23,30.12,6,2,15,0.00
2013-7-5,94.3,85.5,77.4,74.9,72.0,68.7,84,66,45,30.18,30.06,7,3,14,0.00
2013-7-6,92.3,84.2,77.0,73.8,70.1,62.0,85,64,45,30.10,30.00,6,2,13,0.00
2013-7-7,93.4,81.2,70.8,75.5,68.7,61.3,86,67,48,30.05,29.92,4,1,11,0.01
2013-7-8,85.3,77.6,69.3,74.2,70.6,64.5,92,80,61,30.09,29.93,5,1,10,0.01
2013-7-9,74.4,69.2,65.2,66.7,36.8,-99.9,95,70,75,30.14,30.08,3,1,8,0.00
2013-7-10,85.5,74.6,66.9,74.2,27.5,-99.9,94,62,65,30.11,29.82,7,2,14,0.04
2013-7-11,82.6,76.8,73.0,73.7,57.7,-99.9,95,76,65,29.95,29.80,4,1,8,0.10
2013-7-12,77.4,71.6,67.8,70.2,60.1,52.9,92,68,46,30.23,29.95,7,3,14,0.10
2013-7-13,78.5,71.0,66.4,68.7,59.9,-99.9,96,80,70,30.34,30.23,4,1,7,0.02
2013-7-14,93.4,79.9,69.6,73.7,8.2,-99.9,89,40,39,30.33,30.23,4,1,10,0.02
2013-7-15,92.7,82.4,73.0,73.0,70.4,67.2,93,69,45,30.23,30.12,4,1,8,0.00
2013-7-16,94.3,83.1,74.2,73.4,66.8,61.2,88,60,35,30.19,30.13,4,1,9,0.00
2013-7-17,96.6,84.5,72.5,72.8,69.1,62.3,89,63,35,30.20,30.02,6,1,12,0.00
2013-7-18,92.9,83.3,77.7,74.1,70.5,65.1,82,67,45,30.03,29.97,5,1,11,0.00
2013-7-19,98.2,87.1,76.8,76.7,72.6,65.6,90,65,37,29.98,29.74,9,3,30,0.00
2013-7-20,94.3,85.7,78.1,75.8,71.7,62.5,85,64,42,29.82,29.66,7,2,16,0.00
2013-7-21,82.8,75.6,70.6,68.5,63.6,58.2,92,68,49,30.01,29.82,5,1,8,0.07
2013-7-22,81.6,73.8,67.8,69.0,31.2,-99.9,95,60,56,30.05,29.92,5,1,9,0.07
2013-7-23,81.1,72.9,69.8,75.0,-54.6,-99.9,94,23,81,29.92,29.57,6,1,13,1.22
2013-7-24,87.2,77.3,68.1,72.3,4.1,-99.9,85,37,48,29.98,29.61,5,2,13,1.23
2013-7-25,67.6,61.4,59.0,58.4,14.6,-99.9,95,54,59,30.14,29.99,6,2,14,0.41
2013-7-26,71.6,65.1,59.8,67.8,-36.0,-99.9,94,34,77,30.10,29.96,8,2,14,0.37
2013-7-27,85.7,72.7,60.2,65.2,49.4,-99.9,94,65,41,30.09,30.02,5,2,14,0.37
2013-7-28,81.4,72.2,66.9,70.2,34.1,-99.9,94,67,65,30.05,30.00,4,1,7,0.02
2013-7-29,84.1,73.6,67.6,70.2,18.1,-99.9,95,54,57,30.06,30.00,8,1,10,0.22
2013-7-30,83.4,73.0,60.7,60.7,8.3,-99.9,91,36,34,30.12,30.06,6,1,12,0.23
2013-7-31,82.8,73.7,62.4,63.8,58.2,50.9,89,61,34,30.17,30.07,3,1,9,0.00
2013-8-1,81.8,72.4,64.3,64.2,61.3,58.0,92,70,45,30.08,29.92,8,2,18,0.01
2013-8-2,83.8,73.1,64.3,68.1,34.7,-99.9,96,55,39,29.92,29.82,5,1,19,0.12
2013-8-3,80.1,72.4,66.0,64.2,61.5,58.4,89,70,48,29.89,29.81,5,2,19,0.12
2013-8-4,81.6,70.1,60.7,60.7,56.0,50.9,84,63,37,29.92,29.80,5,1,12,0.01
2013-8-5,76.8,66.5,56.5,52.7,46.8,37.5,86,53,26,30.08,29.92,8,3,14,0.01
2013-8-6,79.6,67.1,52.5,56.5,49.7,45.4,90,57,31,30.18,30.08,4,0,9,0.00
2013-8-14,75.1,68.1,62.0,63.6,51.6,48.1,92,57,41,29.99,29.69,9,4,20,0.00
2013-8-15,78.1,67.1,55.3,54.0,50.3,44.9,86,58,33,30.14,29.99,5,1,13,0.00
2013-8-16,79.8,68.7,56.2,57.5,53.1,48.1,89,61,34,30.22,30.14,5,1,13,0.00
2013-8-17,79.4,70.0,59.2,58.6,55.8,52.6,86,63,41,30.31,30.22,4,1,8,0.00
2013-8-18,80.5,71.2,61.6,61.6,57.8,51.4,91,64,39,30.31,30.11,5,1,9,0.00
2013-8-19,82.6,72.3,60.4,61.3,58.8,54.8,93,65,41,30.12,29.98,5,1,10,0.00
2013-8-20,87.8,76.7,65.8,62.8,59.8,53.2,82,59,33,30.11,30.00,4,1,10,0.00
2013-8-21,90.1,77.5,63.9,64.7,61.8,58.6,89,61,37,30.17,30.05,4,1,9,0.00
2013-8-22,87.0,76.6,67.3,70.5,66.2,61.6,90,72,46,30.06,29.85,8,2,15,0.00
2013-8-23,75.3,71.9,69.8,69.6,64.0,54.1,92,77,56,30.08,29.85,5,2,13,0.00